Terug naar catalogus

STARLINK-5983

ActiefCommunicatieVLEO
NORAD 57224·PAYLOAD·🇺🇸 United States

Gelanceerd Jul 7, 2023 vanaf Vandenberg Space Force Base

Loading…

Volgende Passages (komende 24 uur)

TLE

VersSource: CelesTrak SupGP

Epoch: Sep 14, 2026, 20:37 UTC

1 57224C 23094G   26257.85951389  .00061625  00000+0  22321-2 0  2576
2 57224  43.0022  42.1373 0001590 273.2863 297.3579 15.27546783    10

Volg STARLINK-5983 in realtime met AllMySat

Download on the App Store